User: anonymous   Login
Location: Dompnac
(44.5644°N, 4.1026°E)
Time: 02:57:36
(UTC+00:00)
Language:

Cosmos 1674 - Orbit

View from above orbital plane
View from above orbital plane
View from above satellite
View from above satellite

Ground track
Ground track

The orbit data is extracted from the following two-line orbital elements,

1 15944U 85069A   20336.77179070  .00001901  00000-0  86356-4 0  9996
2 15944  82.5094  55.9749 0018003  53.3310 306.9576 15.20024590929799
Epoch (UTC): 01 December 2020 18:31:22
Eccentricity: 0.0018003
inclination: 82.5094°
perigee height: 493 km
apogee height: 518 km
right ascension of ascending node: 55.9749°
argument of perigee: 53.3310°
revolutions per day: 15.20024590
mean anomaly at epoch: 306.9576°
orbit number at epoch: 92979

The dashed part of the orbit path shows where the satellite is in the earth's shadow,  

DLR